Flag for U.S.A. Weather past 2 weeks in Knoxville, Tennessee, U.S.A.

Now
48 °F

Scattered clouds.


Feels Like: 47 °F
Forecast: 43 / 75 °F
Wind: 3 mph from Northeast

Location: McGhee Tyson Airport


UV Index: 5 (Moderate)

Visibility: 10 mi


Pressure: 30.03 "Hg

Humidity: 63%

Dew point: 36 °F

Location of KnoxvilleLocation

Historic Weather in Knoxville

°F

Knoxville temperature yesterday

Maximum temperature yesterday: 69 °F (at 5:53 PM)
Minimum temperature yesterday: 48 °F (at 6:53 AM)
Average temperature yesterday: 59 °F

Past Weeks' High & Low Weather Summary

 TemperatureHumidityPressure
High82 °F (Apr 13, 3:53 PM)100% (Apr 12, 7:53 AM)30.42 "Hg (Apr 12, 7:53 AM)
Low31 °F (Apr 16, 5:53 AM)21% (Apr 23, 5:53 PM)29.65 "Hg (Apr 15, 4:53 AM)
Average58 °F58%30.08 "Hg
* Reported Apr 9 7:53 AM — Apr 24 7:53 AM, Knoxville, Weather by CustomWeather, © 2014

Note: Actual official high and low records may vary slightly from our data, if they occured in-between our weather recording intervals... More about our weather records

Advertising

Historic Weather Conditions — Data for Previous 24 hours

 ConditionsComfort  
Time TempWeatherWind HumidityBarometerVisibility
7:53 AM
Apr 24
48 °FScattered clouds.3 mph63%30.03 "Hg10 mi
6:53 AM44 °FClear.5 mph68%30.01 "Hg10 mi
5:53 AM45 °FClear.5 mph65%30.00 "Hg10 mi
4:53 AM47 °FClear.7 mph61%29.99 "Hg10 mi
3:53 AM46 °FClear.7 mph61%29.98 "Hg10 mi
2:53 AM47 °FClear.6 mph61%29.97 "Hg10 mi
1:53 AM51 °FClear.8 mph50%29.98 "Hg10 mi
12:53 AM52 °FClear.5 mph45%29.99 "Hg10 mi
11:53 PM
Apr 23
53 °FClear.3 mph45%30.00 "Hg10 mi
10:53 PM58 °FClear.7 mph35%29.99 "Hg10 mi
9:53 PM59 °FClear.6 mph32%29.98 "Hg10 mi
8:53 PM61 °FSunny.7 mph32%29.96 "Hg10 mi
7:53 PM63 °FSunny.6 mph31%29.94 "Hg10 mi
6:53 PM68 °FSunny.6 mph25%29.94 "Hg10 mi
5:53 PM69 °FSunny.6 mph21%29.93 "Hg10 mi
4:53 PM68 °FSunny.6 mph25%29.94 "Hg10 mi
3:53 PM67 °FPassing clouds.3 mph24%29.95 "Hg10 mi
2:53 PM66 °FPassing clouds.7 mph27%29.97 "Hg10 mi
1:53 PM64 °FSunny.12 mph27%29.99 "Hg10 mi
12:53 PM62 °FSunny.5 mph31%30.01 "Hg10 mi
11:53 AM59 °FSunny.6 mph36%30.02 "Hg10 mi
10:53 AM57 °FSunny.9 mph44%30.03 "Hg10 mi
9:53 AM55 °FPassing clouds.9 mph45%30.02 "Hg10 mi
Weather by CustomWeather, © 2014

See weather overview